This demonstration page uses our WeatherBlox Daily Observations layout. Learn more.

Left ArrowRight Arrow

36.17497, -115.13722

Hourly Observations for August 7, 2021

Temp ( °F °C ) Dew Point ( °F °C ) Humidity (%) Winds ( mph kmh ) Pressure ( in mb ) Visibility ( mi km ) Precip ( " mm )
12:53 am 00:53 Hazy 87 30.6 24 -4.4 10 10 NNW 6 9 29.80 1009 6 10 0.00 0.00
1:53 am 01:53 Hazy 86 30 22 -5.6 9 9 N 6 9 29.80 1009 3 5 0.00 0.00
2:53 am 02:53 Hazy 88 31.1 17 -8.3 7 7 NNW 9 15 29.80 1009 4 6 0.00 0.00
3:53 am 03:53 Hazy 86 30 20 -6.7 9 9 WSW 5 7 29.82 1010 4 6 0.00 0.00
4:53 am 04:53 Hazy 83 28.3 24 -4.4 11 11 SW 3 6 29.84 1010 3 5 0.00 0.00
5:53 am 05:53 Hazy 81 27.2 28 -2.2 14 14 W 6 9 29.85 1011 3 5 0.00 0.00
6:05 am 06:05 Hazy 82 27.8 27 -2.8 13 13 WNW 6 9 29.76 1008 2 3 0.00 0.00
6:53 am 06:53 Hazy 80 26.7 31 -0.6 17 17 NNW 6 9 29.87 1012 3 4 0.00 0.00
7:21 am 07:21 Hazy 81 27.2 30 -1.1 16 16 W 6 9 29.80 1009 3 5 0.00 0.00
7:53 am 07:53 Hazy 83 28.3 29 -1.7 14 14 Calm 29.90 1013 3 5 0.00 0.00
8:00 am 08:00 Hazy 83 28.3 29 -1.7 14 14 Calm 29.80 1009 3 4 0.00 0.00
8:53 am 08:53 Hazy 87 30.6 28 -2.2 12 12 NW 5 7 29.90 1013 3 4 0.00 0.00
9:04 am 09:04 Hazy 89 31.7 27 -2.8 11 11 WNW 6 9 29.78 1009 2 3 0.00 0.00
9:53 am 09:53 Hazy 92 33.3 29 -1.7 10 10 NNE 5 7 29.90 1013 2 3 0.00 0.00
10:34 am 10:34 Hazy 95 35 25 -3.9 8 8 NNE 3 6 29.76 1008 2 3 0.00 0.00
10:53 am 10:53 Hazy 95 35 26 -3.3 8 8 VRB 3 6 29.91 1013 2 3 0.00 0.00
11:28 am 11:28 Hazy 95 35 38 3.3 14 14 Calm 29.75 1007 3 5 0.00 0.00
11:51 am 11:51 Hazy 99 37 37 3 12 12 Calm 29.74 1007 2 3 0.00 0.00
11:53 am 11:53 Hazy 98 36.7 37 2.8 12 12 Calm 29.89 1012 2 3 0.00 0.00
12:00 pm 12:00 Hazy 97 36.1 37 2.8 12 12 VRB 3 6 29.73 1007 4 6 0.00 0.00
12:28 pm 12:28 Hazy 99 37.2 37 2.8 12 12 undefined N/A 29.72 1006 2 3 0.00 0.00
12:53 pm 12:53 Hazy 99 37.2 36 2.2 11 11 VRB 3 6 29.87 1011 2 3 0.00 0.00
1:53 pm 13:53 Sunny with Smoke 100 37.8 35 1.7 10 10 VRB 3 6 29.84 1011 7 11 0.00 0.00
2:53 pm 14:53 Hazy 103 39.4 31 -0.6 8 8 WSW 5 7 29.81 1009 6 10 0.00 0.00
3:53 pm 15:53 Sunny with Smoke 105 40.6 24 -4.4 6 6 S 5 7 29.77 1008 7 11 0.00 0.00
4:53 pm 16:53 Sunny with Smoke 106 41.1 21 -6.1 5 5 VRB 7 11 29.75 1008 7 11 0.00 0.00
5:53 pm 17:53 Sunny with Smoke 105 40.6 24 -4.4 6 6 SE 6 9 29.74 1007 9 14 0.00 0.00
6:53 pm 18:53 Sunny with Smoke 105 40.6 23 -5 5 5 SSW 7 11 29.73 1007 10 16 0.00 0.00
7:53 pm 19:53 Clear with Smoke 101 38.3 36 2.2 10 10 SSE 6 9 29.73 1007 10 16 0.00 0.00
8:53 pm 20:53 Clear with Smoke 100 37.8 27 -2.8 7 7 WSW 8 13 29.74 1007 10 16 0.00 0.00
9:53 pm 21:53 Clear with Smoke 98 36.7 18 -7.8 5 5 SW 8 13 29.75 1007 10 16 0.00 0.00
10:53 pm 22:53 Clear with Smoke 93 33.9 33 0.6 12 12 Calm 29.75 1008 10 16 0.00 0.00
11:53 pm 23:53 Clear with Smoke 90 32.2 28 -2.2 11 11 N 7 11 29.76 1008 10 16 0.00 0.00

Powered by AerisWeather